Miscellaneous Local Product
Issued by NWS North Platte, NE

Home | Current Version | Previous Version | Graphics & Text | Print | Product List | Glossary On
Versions: 1 2 3 4 5 6 7 8 9 10 11 12 13 14 15 16 17 18 19 20 21 22 23 24 25 26 27 28 29 30 31 32 33 34 35 36 37 38 39 40 41 42 43 44 45 46 47 48 49 50
000
AXUS43 KLBF 291510
MISLBF


WESTERN AND NORTH CENTRAL NEBRASKA HOURLY WEATHER ROUNDUP
NATIONAL WEATHER SERVICE NORTH PLATTE NE
1000 AM CDT WED JUL 29 2015

***STATIONS NOT REPORTING VARIABLES SUCH AS SKY/WEATHER OR
PRESSURE ARE PROVIDED BY THE NEBRASKA DEPARTMENT OF
ROADS...RAWS...AND APRS NETWORKS...AND ARE NOT UNDER
NATIONAL WEATHER SERVICE QUALITY CONTROL***

...OBSERVATIONS IN AND NEAR THE EASTERN PANHANDLE OF NEBRASKA...

CITY           SKY/WX    TMP DP  RH WIND       PRES   REMARKS
PINE RIDGE     SUNNY     67  45  45 W5        30.31R
CHADRON        SUNNY     67  46  47 W6        30.31S
ALLIANCE       SUNNY     66  47  50 S7        30.34R
SIDNEY         SUNNY     69  43  38 SE10      30.34S
BIG SPRINGS      N/A     69  56  64 SE8         N/A
$$

...OBSERVATIONS IN NORTH CENTRAL NEBRASKA...

CITY           SKY/WX    TMP DP  RH WIND       PRES   REMARKS
VALENTINE      SUNNY     72  47  40 SW12      30.27R
THEDFORD       CLOUDY    73  48  42 S10       30.32R
AINSWORTH      SUNNY     74  46  36 SW13      30.28R
O`NEILL        SUNNY     75  55  49 SW8       30.25S
ORD            PTSUNNY   69  58  67 CALM      30.27R
BROKEN BOW     PTSUNNY   69  55  60 CALM      30.30R
SPRINGVIEW       N/A     72  53  51 W6          N/A
CHAMBERS         N/A     77  55  46 CALM        N/A
EWING            N/A     74  59  58 SW5         N/A
$$

...OBSERVATIONS IN SOUTHWEST NEBRASKA AND FAR NORTHEAST COLORADO...

CITY           SKY/WX    TMP DP  RH WIND       PRES   REMARKS
WRAY           FAIR      68  52  56 E9        30.30F
HOLYOKE        FAIR      70  50  49 SE9       30.32S
IMPERIAL       MOSUNNY   71  51  49 SE9       30.31S
OGALLALA       CLOUDY    70  53  54 S9        30.32S
NORTH PLATTE   PTSUNNY   67  53  61 CALM      30.32R
MCCOOK         SUNNY     71  56  58 NE8       30.28F
LEXINGTON      MOSUNNY   69  57  65 CALM      30.30F
PAXTON           N/A     68  58  69 SE6         N/A
BRADY            N/A     66  54  66 CALM        N/A
CALLAWAY         N/A     69  61  75 S3          N/A
$$

...NORTH PLATTE AREA...

CITY           SKY/WX    TMP DP  RH WIND       PRES   REMARKS
AIRPORT        PTSUNNY   67  53  61 CALM      30.32R
DOWNTOWN         N/A     72  54  53 CALM        N/A
SANDRIDGE        N/A     71  54  55 CALM        N/A
HILLCREST        N/A     70  53  55 S3          N/A
$$

...SOME WEATHER OBSERVATIONS FROM AROUND THE REGION...

CITY           SKY/WX    TMP DP  RH WIND       PRES   REMARKS
DENVER         MOSUNNY   72  47  40 S16       30.33S
LARAMIE        SUNNY     62  39  42 S5        30.41R
CHEYENNE       SUNNY     61  37  41 N3        30.38S
SCOTTSBLUFF    SUNNY     63  47  55 E8        30.34S
RAPID CITY     SUNNY     72  44  36 W12       30.26R
PIERRE         SUNNY     73  48  41 SW8       30.12S
WINNER         FAIR      79  43  27 W16       30.20R
SIOUX FALLS    MOSUNNY   71  55  56 VRB7      30.13R
OMAHA          MOSUNNY   75  66  73 NW5       30.18R
GRAND ISLAND   MOSUNNY   75  58  55 W5        30.27S
KANSAS CITY    CLOUDY    73  70  90 N3        30.14S
WICHITA        LGT RAIN  74  69  85 NE16      30.14S
HAYS           CLOUDY    70  55  60 NE18      30.17F
LIBERAL        CLOUDY    70  52  52 NE10      30.21R
GOODLAND       PTSUNNY   71  50  47 E15G23    30.28S
$$



USA.gov is the U.S. government's official web portal to all federal, state and local government web resources and services.